FENGYUN 1C DEB, 31535

Orbit data source: Space-Track

FENGYUN 1C DEB, 31535 is space debris in SSO originally from a launch on Mon, 10 May 1999 UTC launched from the Taiyaun Space Center, China (TSC). Fengyun 1C debris stems from the Chinese weather satellite Fengyun-1C, which was intentionally destroyed by a Chinese anti-satellite missile in 2007. This event dramatically increased the amount of space debris, with thousands of trackable fragments posing hazards to satellites and human spaceflight. The Fengyun 1C debris cloud has become a focal point in discussions about space sustainability and the need for international regulations to prevent the creation of new debris.

Loading next visibility...
Identifier
31535, 1999-025BYA
Orbit
SSO
Country
Flag of CNCN / PRC
Related business
Manufacturer
Unknown
Mission
Spacecraft
Bus & Motor
Unknown
Mass
Unknown
Launch date (UTC)
1999-05-10 (27 years ago)
Launch vehicle
Unknown
Launch site
Taiyaun Space Center, China (TSC)
Object type
Payload
Rocket body
Debris
Shape & HBR
Unknown shape, 0.1 m
Radar Cross Section
Small (<0.1 m²)

Expand to show TLE details & history
Last TLE update: 5 days ago

TLE from 5 days ago
0 FENGYUN 1C DEB
1 31535U 99025BYA 26258.79680097  .00000914  00000-0  35999-3 0  9993
2 31535  98.0197  91.8140 0088199  58.3933 302.5821 14.29125973758871
Epoch: 2026-09-15T19:07Z
TLE epoch observation values (Epoch: 2026-09-15T19:07:23.603Z)
Latitude
-0.00002°
Longitude
170.20806°
Altitude
763.927 km
Speed
7.49 km/s
True Right ascension
06h 07m 15s
True Declination
0° 00' 00"
Sunlit
Object was in daylight at epoch
Visualization orbit readout
Latitude
Unknown
Longitude
Unknown
Altitude
Unknown
Speed
Unknown
Apparent Right ascension
Unknown
Apparent Declination
Unknown
Sunlit
N/A
Visualization observer readout
Local Sidereal Time
23:27:27
Azimuth
Unknown
Elevation
Unknown
Doppler factor
Unknown
Orbital elements
Apogee altitude
855.006 km
Perigee altitude
728.53 km
Semi-major axis
7,169.905 km
Eccentricity
0.00882
Inclination
98.0197°
RAAN
91.814°
Arg. of periapsis
58.3933°
True anomaly
301.72542°
Mean anomaly
302.5821°
Eccentric anomaly
302.15427°
Mean motion
3.57498 °/min
Orbital period
100.7 mins
BSTAR
0.00035999
Loading maneuver chart data...
Computing Atmospheric mass density...

Documentation

Showing up to 5 results
|